[[{"header":{"parameterUnit":"m.s-1","parameterCategory":1,"la1":30.2991,"la2":30.254,"lo1":-89.0895,"lo2":-89.0444,"dy":0.0017,"dx":0.0017,"nx":28,"ny":28,"refTime":"2024-05-16T09:00:00:Z","depth":0,"parameterNumber":2,"parameterNumberName":"U-component_of_WINDS"},"data":[0,0,0,0,0,0,0,0,0,0,0,0,0,0,0,0,0,0,0,0,0,0,0,0,0,0,0,0,0,0,0,0,0,0,0,0,0,0,0,0,0,0,0,0,0,0,0,0,0,0,0,0,0,0,0,0,0,0,-3.1941,-3.194,0,-3.1856,-3.1855,-3.1854,-3.1741,-3.174,-3.1738,-3.1736,-3.1648,-3.1647,-3.1646,0,0,0,0,0,0,0,0,0,0,0,0,0,-3.2007,-3.2007,-3.1941,-3.194,-3.1939,-3.1856,-3.1855,-3.1853,-3.1742,-3.174,-3.1737,-3.1735,-3.1648,-3.1647,-3.1646,0,0,0,0,0,0,0,0,0,0,0,0,0,-3.1956,-3.2007,-3.1941,-3.1873,-3.1866,-3.1856,-3.1855,-3.1853,-3.1742,-3.1739,-3.1737,-3.1734,-3.1648,-3.1647,-3.1646,-3.1696,0,0,-3.1643,-3.1643,0,0,0,0,0,0,0,0,-3.1959,-3.1954,-3.1884,-3.1878,-3.187,-3.1806,-3.1845,-3.18,-3.1743,-3.1789,-3.1736,-3.1733,-3.1703,-3.1697,-3.1687,-3.1691,-3.1688,-3.1643,-3.1643,-3.1642,-3.1642,0,0,0,0,0,0,0,-3.1963,-3.1957,-3.1907,-3.1883,-3.1875,-3.1847,-3.1837,-3.1836,-3.1762,-3.1785,-3.1777,-3.1768,-3.1698,-3.1688,-3.1684,-3.1686,-3.1643,-3.1642,-3.1642,-3.1641,-3.1728,-3.1731,0,0,0,0,0,0,-3.1977,-3.196,-3.191,-3.1904,-3.1909,-3.1848,-3.1836,-3.183,-3.1762,-3.1749,-3.1771,-3.1763,-3.1691,-3.1685,-3.1681,-3.1733,-3.1642,-3.1641,-3.1641,-3.1725,-3.1729,-3.1732,0,0,0,0,0,0,-3.1978,-3.1973,-3.1913,-3.193,-3.192,-3.185,-3.1843,-3.1829,-3.1819,-3.1751,-3.1737,-3.1774,-3.1689,-3.1682,-3.1693,-3.1729,-3.1641,-3.164,-3.1722,-3.1726,-3.173,-3.184,0,0,0,0,0,0,-3.1981,-3.1974,-3.1992,-3.1931,-3.192,-3.1927,-3.1845,-3.183,-3.1818,-3.1807,-3.1751,-3.1739,-3.1686,-3.1695,-3.1692,-3.1726,-3.1639,-3.1718,-3.1724,-3.1729,-3.1833,-3.1848,-3.186,0,0,0,0,0,-3.1984,-3.2026,-3.1993,-3.1988,-3.194,-3.1929,-3.1922,-3.1861,-3.1821,-3.1838,-3.1795,-3.174,-3.1727,-3.1697,-3.1693,-3.1727,-3.1716,-3.1722,-3.1729,-3.1827,-3.1845,-3.186,0,0,0,0,0,0,-3.2091,-3.2016,-3.198,-3.2003,-3.1974,-3.191,-3.1929,-3.1882,-3.1863,-3.1854,-3.1779,-3.1767,-3.1788,-3.1759,-3.1727,-3.1772,-3.1713,-3.1719,-3.1789,-3.1806,-3.1819,-3.1824,-3.1639,0,0,0,0,0,-3.2118,-3.2115,-3.205,-3.2077,-3.2064,-3.2001,-3.1993,-3.1949,-3.1915,-3.1901,-3.1859,-3.1828,-3.1816,-3.181,-3.1796,-3.183,-3.1816,-3.1852,-3.1865,-3.1877,-3.1882,-3.1898,-3.1913,-3.1753,-3.1753,-3.1753,0,0,-3.2172,-3.2131,-3.2133,-3.2098,-3.2069,-3.2068,-3.199,-3.1992,-3.199,-3.1901,-3.1908,-3.1878,-3.1838,-3.1861,-3.1869,-3.1837,-3.1924,-3.1885,-3.1895,-3.1893,-3.1906,-3.1922,-3.1935,-3.1758,-3.1757,-3.1756,0,0,-3.227,-3.224,-3.2259,-3.2233,-3.2191,-3.2149,-3.2155,-3.2099,-3.2075,-3.2082,-3.2015,-3.2013,-3.1995,-3.1969,-3.1954,-3.2048,-3.1996,-3.2045,-3.2115,-3.2132,-3.2145,-3.2155,-3.2187,-3.22,-3.2051,-3.2052,-3.2052,0,-3.2342,-3.2337,-3.2275,-3.2281,-3.2267,-3.2189,-3.2208,-3.2186,-3.2143,-3.2135,-3.2102,-3.2078,-3.2046,-3.2062,-3.2085,-3.2076,-3.2079,-3.2049,-3.2148,-3.2158,-3.2167,-3.2197,-3.2209,-3.2058,-3.2057,-3.2056,-3.2056,0,-3.2428,-3.2427,-3.2447,-3.2408,-3.2397,-3.241,-3.235,-3.2347,-3.2305,-3.2267,-3.2276,-3.2236,-3.2212,-3.2213,-3.2172,-3.2224,-3.2206,-3.2162,-3.21,-3.219,-3.2216,-3.2227,-3.2066,-3.2064,-3.2062,-3.2061,0,0,-3.2586,-3.2515,-3.2524,-3.2505,-3.2456,-3.2453,-3.2464,-3.2442,-3.244,-3.2415,-3.2421,-3.2409,-3.2368,-3.2352,-3.2308,-3.2323,-3.2399,-3.2276,-3.2274,-3.2299,-3.2453,-3.2485,-3.2499,-3.2366,-3.2368,-3.237,-3.2456,0,-3.2673,-3.2686,-3.2631,-3.2658,-3.2656,-3.2584,-3.2594,-3.2565,-3.2531,-3.2524,-3.2486,-3.2478,-3.2426,-3.2415,-3.2428,-3.2387,-3.2428,-3.238,-3.237,-3.2371,-3.2379,-3.2513,-3.2546,-3.2628,-3.2466,-3.2467,-3.2469,0,-3.2774,-3.2755,-3.2782,-3.2733,-3.273,-3.2739,-3.2715,-3.271,-3.2677,-3.2651,-3.2635,-3.2585,-3.2592,-3.2537,-3.2546,-3.2515,-3.2508,-3.2489,-3.249,-3.2484,-3.2423,-3.2508,-3.2653,-3.2665,-3.2485,-3.2483,-3.2482,0,-3.2885,-3.2866,-3.288,-3.2867,-3.281,-3.2819,-3.2796,-3.276,-3.2751,-3.2731,-3.2724,-3.2706,-3.2695,-3.2682,-3.2629,-3.2594,-3.2644,-3.2584,-3.2622,-3.2623,-3.2632,-3.2632,-3.2776,-3.2634,-3.2634,-3.2633,-3.2633,0,-3.2986,-3.3005,-3.2929,-3.2937,-3.2957,-3.2896,-3.2917,-3.2887,-3.2857,-3.2858,-3.2796,-3.2799,-3.273,-3.2726,-3.2685,-3.2698,-3.2694,-3.2673,-3.2661,-3.2677,-3.2679,-3.2669,-3.266,-3.2637,-3.2636,-3.2635,-3.2635,0,-3.3111,-3.3061,-3.3071,-3.3018,-3.3006,-3.3022,-3.2977,-3.2983,-3.2947,-3.2949,-3.2946,-3.2889,-3.2881,-3.2828,-3.2807,-3.278,-3.2808,-3.2786,-3.2819,-3.281,-3.285,-3.2846,-3.299,-3.3005,-3.2857,-3.2858,-3.2859,0,-3.3176,-3.3189,-3.3139,-3.3136,-3.3116,-3.3112,-3.3103,-3.3044,-3.3037,-3.3003,-3.3013,-3.3,-3.2986,-3.2976,-3.2933,-3.2917,-3.2893,-3.2945,-3.289,-3.2906,-3.2891,-3.289,-3.2891,-3.2955,-3.2957,-3.2959,-3.296,0,-3.3298,-3.3273,-3.3262,-3.3245,-3.3236,-3.3219,-3.3198,-3.3199,-3.3134,-3.313,-3.3121,-3.3111,-3.3092,-3.3079,-3.3057,-3.3033,-3.2986,-3.2979,-3.2986,-3.3,-3.3017,-3.3007,-3.2848,-3.2974,-3.2973,-3.2972,-3.2971,-3.297,-3.3393,-3.3401,-3.3368,-3.3359,-3.3337,-3.332,-3.3323,-3.3288,-3.328,-3.3259,-3.3226,-3.3222,-3.3191,-3.3156,-3.3137,-3.3134,-3.3106,-3.3117,-3.312,-3.3122,-3.313,-3.3022,-3.313,-3.3129,-3.3129,-3.3128,-3.3128,0,-3.3509,-3.3485,-3.3478,-3.3451,-3.3444,-3.3403,-3.3379,-3.3375,-3.3373,-3.3348,-3.3337,-3.3327,-3.3316,-3.3274,-3.3258,-3.3264,-3.3242,-3.3261,-3.3258,-3.3254,-3.3156,-3.315,-3.3279,-3.3279,-3.3279,-3.3279,-3.3279,-3.3279,-3.3569,-3.3581,-3.3553,-3.3555,-3.3531,-3.3527,-3.3516,-3.35,-3.348,-3.3473,-3.3463,-3.3437,-3.3405,-3.3387,-3.3375,-3.3363,-3.3359,-3.3386,-3.3366,-3.3275,-3.3261,-3.3247,-3.324,-3.3386,-3.3386,-3.3463,-3.3464,-3.3465]},{"header":{"parameterUnit":"m.s-1","parameterCategory":1,"la1":30.2991,"la2":30.254,"lo1":-89.0895,"lo2":-89.0444,"dy":0.0017,"dx":0.0017,"nx":28,"ny":28,"refTime":"2024-05-16T09:00:00:Z","depth":0,"parameterNumber":3,"parameterNumberName":"V-component_of_WINDS"},"data":[0,0,0,0,0,0,0,0,0,0,0,0,0,0,0,0,0,0,0,0,0,0,0,0,0,0,0,0,0,0,0,0,0,0,0,0,0,0,0,0,0,0,0,0,0,0,0,0,0,0,0,0,0,0,0,0,0,0,2.4572,2.4573,0,2.4644,2.4645,2.4646,2.4733,2.4734,2.4735,2.4737,2.4806,2.4807,2.4807,0,0,0,0,0,0,0,0,0,0,0,0,0,2.4506,2.4507,2.4572,2.4573,2.4574,2.4644,2.4645,2.4646,2.4732,2.4734,2.4736,2.4737,2.4806,2.4807,2.4807,0,0,0,0,0,0,0,0,0,0,0,0,0,2.4552,2.4507,2.4572,2.4626,2.4631,2.4644,2.4645,2.4646,2.4732,2.4734,2.4736,2.4738,2.4806,2.4807,2.4807,2.4772,0,0,2.481,2.4811,0,0,0,0,0,0,0,0,2.455,2.4555,2.4617,2.4622,2.4628,2.4682,2.4648,2.4689,2.4731,2.4693,2.4737,2.4739,2.4763,2.4767,2.4776,2.4776,2.4779,2.481,2.4811,2.4811,2.4811,0,0,0,0,0,0,0,2.4546,2.4552,2.4601,2.4618,2.4624,2.4645,2.4654,2.4656,2.4716,2.4697,2.4703,2.4711,2.4766,2.4775,2.4779,2.478,2.481,2.4811,2.4812,2.4812,2.4755,2.4753,0,0,0,0,0,0,2.4536,2.4549,2.4598,2.4603,2.4593,2.4645,2.4654,2.4662,2.4716,2.4726,2.4709,2.4715,2.4773,2.4777,2.4781,2.4745,2.4811,2.4812,2.4812,2.4757,2.4755,2.4753,0,0,0,0,0,0,2.4534,2.4539,2.4596,2.4578,2.4586,2.4644,2.4652,2.4663,2.4672,2.4725,2.4736,2.4708,2.4774,2.478,2.4775,2.4748,2.4812,2.4813,2.476,2.4757,2.4754,2.4671,0,0,0,0,0,0,2.4532,2.4538,2.4526,2.4577,2.4587,2.4588,2.465,2.4663,2.4674,2.4682,2.4727,2.4736,2.4776,2.4773,2.4775,2.4751,2.4814,2.4762,2.4758,2.4755,2.4676,2.4665,2.4656,0,0,0,0,0,2.4529,2.4498,2.4525,2.453,2.4573,2.4586,2.4592,2.4641,2.4671,2.4659,2.4694,2.4735,2.4751,2.4772,2.4775,2.475,2.4764,2.476,2.4755,2.4681,2.4667,2.4656,0,0,0,0,0,0,2.4441,2.4506,2.4536,2.4521,2.4548,2.4601,2.4587,2.4625,2.4642,2.4649,2.4707,2.4716,2.4704,2.4727,2.4749,2.472,2.4764,2.476,2.4706,2.4694,2.4684,2.4678,2.4815,0,0,0,0,0,2.442,2.4426,2.4482,2.4464,2.4476,2.4529,2.4537,2.4572,2.4601,2.4613,2.4647,2.4673,2.4684,2.469,2.4703,2.468,2.4691,2.4665,2.4655,2.4646,2.4642,2.4632,2.4621,2.4738,2.4738,2.4738,0,0,2.4376,2.4412,2.4413,2.4447,2.4472,2.4477,2.4538,2.454,2.4544,2.4613,2.461,2.4636,2.4669,2.4655,2.465,2.4673,2.4613,2.464,2.4633,2.4634,2.4626,2.4615,2.4605,2.4735,2.4735,2.4736,0,0,2.4299,2.4327,2.4316,2.434,2.4378,2.4413,2.441,2.4459,2.4479,2.4478,2.453,2.4535,2.4553,2.4575,2.4588,2.4521,2.456,2.4524,2.4471,2.4461,2.4452,2.4444,2.4421,2.4411,2.4519,2.4519,2.4519,0,2.424,2.425,2.4304,2.4304,2.4318,2.4382,2.4371,2.4391,2.443,2.4438,2.4464,2.4489,2.4515,2.4508,2.4492,2.45,2.4498,2.4519,2.4449,2.4442,2.4435,2.4413,2.4404,2.4515,2.4515,2.4516,2.4516,0,2.4175,2.4182,2.4168,2.4206,2.4218,2.4212,2.4265,2.4271,2.4305,2.4338,2.4336,2.4371,2.4393,2.4394,2.4426,2.4391,2.4404,2.4439,2.4483,2.4419,2.4399,2.4391,2.4508,2.451,2.4511,2.4512,0,0,2.4044,2.4114,2.4108,2.4127,2.4174,2.4179,2.4176,2.42,2.4203,2.4228,2.4227,2.4242,2.4275,2.429,2.4326,2.4317,2.4263,2.4353,2.4354,2.4335,2.4226,2.42,2.4189,2.4289,2.4287,2.4286,2.4224,0,2.3976,2.3976,2.4025,2.4011,2.4018,2.408,2.4077,2.4105,2.4136,2.4146,2.418,2.419,2.4232,2.4242,2.4236,2.427,2.4241,2.4276,2.4287,2.4287,2.4277,2.4179,2.4152,2.4091,2.4216,2.4215,2.4214,0,2.3896,2.3919,2.3906,2.3955,2.396,2.3956,2.3983,2.3991,2.4024,2.4048,2.4065,2.4107,2.4107,2.415,2.415,2.4173,2.418,2.4198,2.4197,2.42,2.4246,2.4179,2.4072,2.4063,2.4203,2.4203,2.4204,0,2.3802,2.3829,2.3826,2.384,2.3897,2.3893,2.3916,2.3952,2.3963,2.3985,2.3993,2.4014,2.4026,2.4041,2.4087,2.4114,2.4083,2.4129,2.4102,2.41,2.4092,2.4092,2.3984,2.4096,2.4096,2.4097,2.4097,0,2.3721,2.371,2.3784,2.3782,2.3772,2.3829,2.3818,2.3847,2.3878,2.3882,2.3936,2.3939,2.4,2.4009,2.4045,2.404,2.4044,2.4063,2.4072,2.4058,2.4056,2.4064,2.4069,2.4094,2.4095,2.4095,2.4096,0,2.3614,2.3663,2.3663,2.3718,2.3732,2.3722,2.3769,2.3768,2.3803,2.3807,2.3812,2.3866,2.3879,2.3928,2.3952,2.3976,2.396,2.3979,2.3949,2.3956,2.3925,2.3928,2.3819,2.3808,2.3927,2.3926,2.3925,0,2.3559,2.3553,2.3608,2.3615,2.3637,2.3647,2.366,2.3716,2.3726,2.3765,2.3759,2.3778,2.3796,2.3814,2.3855,2.3874,2.3894,2.3855,2.3897,2.3883,2.3894,2.3894,2.3893,2.3845,2.3844,2.3842,2.3841,0,2.3457,2.3482,2.3498,2.3523,2.3537,2.3559,2.3584,2.3587,2.3649,2.3658,2.3674,2.3687,2.3714,2.3731,2.3758,2.3781,2.3821,2.3828,2.3823,2.3808,2.3791,2.38,2.3925,2.383,2.3831,2.3832,2.3833,2.3833,2.3375,2.3373,2.3411,2.3428,2.3453,2.3476,2.3479,2.3515,2.3529,2.3556,2.3588,2.36,2.3634,2.3674,2.3694,2.3704,2.3726,2.3718,2.3716,2.3713,2.3706,2.379,2.3709,2.3709,2.371,2.371,2.371,0,2.3275,2.3304,2.3319,2.3353,2.3367,2.3405,2.3436,2.3444,2.3454,2.3483,2.35,2.3518,2.3536,2.3578,2.36,2.3599,2.3618,2.3603,2.3603,2.3608,2.3685,2.3688,2.3587,2.3587,2.3587,2.3587,2.3587,2.3587,2.3225,2.3224,2.3254,2.3266,2.3294,2.3308,2.3322,2.3343,2.3367,2.3385,2.34,2.3429,2.3464,2.3488,2.3506,2.3518,2.3524,2.3502,2.352,2.3591,2.3603,2.3614,2.3617,2.3503,2.3503,2.3443,2.3442,2.3441]}]]